Flag for Brazil Weather past 2 weeks in Santos, São Paulo, Brazil

Now
68 °F

Low clouds.


Feels Like: 68 °F
Forecast: 76 / 88 °F
Wind: 5 mph from Southeast

Location: Sao Paulo Airport

Current Time: Dec 26, 2014 at 2:31:36 AM

Latest Report: Dec 26, 2014 at 2:00 AM


Visibility: 4 mi

Pressure: 30.21 "Hg

Humidity: 88%

Dew point: 64 °F

Location of SantosLocation

Historic Weather in Santos — Graph

°F

Santos temperature yesterday

Maximum temperature yesterday: 82 °F (at 1:00 PM)
Minimum temperature yesterday: 64 °F (at 4:00 AM)
Average temperature yesterday: 70 °F

Past Weeks' High & Low Weather Summary

 TemperatureHumidityPressure
High88 °F (Dec 18, 2:00 PM)100% (Dec 11, 6:00 PM)30.21 "Hg (Dec 11, 6:00 PM)
Low32 °F (Dec 12, 7:00 PM)31% (Dec 18, 12:00 PM)29.83 "Hg (Dec 13, 5:00 PM)
Average71 °F74%30.01 "Hg
* Reported Dec 11 1:00 AM — Dec 26 1:00 AM, Santos, Weather by CustomWeather, © 2014

Note: Actual official high and low records may vary slightly from our data, if they occured in-between our weather recording intervals... More about our weather records

Advertising

Santos weather history for previous 24 hours

 ConditionsComfort  
Time TempWeatherWind HumidityBarometerVisibility
1:00 AM
Dec 26
68 °FFog.5 mph88%30.21 "Hg3 mi
12:00 AM68 °FPassing clouds.8 mph88%30.21 "Hg6 mi
11:00 PM
Dec 25
70 °FLow clouds.8 mph83%30.21 "Hg6 mi
10:00 PM70 °FFog.8 mph88%30.18 "Hg3 mi
9:00 PM70 °FFog.9 mph88%30.18 "Hg1 mi
8:00 PM70 °FFog.6 mph88%30.15 "Hg3 mi
7:00 PM70 °FLight rain. Partly sunny.7 mph88%N/AN/A
6:00 PM70 °FLight rain. Partly sunny.8 mph83%N/AN/A
5:00 PM70 °FThunderstorms. Partly sunny.7 mph78%N/AN/A
4:00 PM64 °FStrong thunderstorms. Partly sunny.20 mph88%30.15 "Hg1 mi
3:00 PM81 °FPartly sunny.15 mph70%30.12 "Hg4 mi
2:00 PM82 °FBroken clouds.7 mph58%30.15 "HgN/A
1:00 PM82 °FScattered clouds.5 mph55%30.15 "HgN/A
12:00 PM81 °FPassing clouds.3 mph58%30.18 "HgN/A
11:00 AM79 °FPassing clouds.3 mph65%30.18 "HgN/A
10:00 AM73 °FScattered clouds.7 mph74%30.15 "HgN/A
9:00 AM68 °FLow clouds.6 mph83%30.18 "HgN/A
8:00 AM66 °FLow clouds.3 mph88%30.15 "HgN/A
7:00 AM66 °FLow clouds.2 mph88%30.15 "Hg4 mi
6:00 AM66 °FLow clouds.3 mph88%30.12 "Hg6 mi
5:00 AM64 °FLow clouds.6 mph94%30.12 "HgN/A
4:00 AM64 °FLow clouds.5 mph94%30.12 "HgN/A
3:00 AM66 °FLow clouds.7 mph88%30.12 "Hg4 mi
2:00 AM66 °FLow clouds.3 mph88%30.12 "Hg6 mi
Weather by CustomWeather, © 2014

See weather overviewHow to use our weather pages